sat.trackr.live / text

‹ back to catalog

ONEWEB-0277

NORAD 48995 · 2021-060AE

PAYLOAD ACTIVE UNKNOWN

§ Identity

Operator
Country
UK
Launch date
2021-07-01
Launch site
VOSTO
Launch vehicle
Mass (kg)
RCS (m²)

Purposes: comms

External: N2YO · Heavens-Above · Gunter

§ Orbital elements

Epoch: 2026-05-24T22:39:44.332704Z

Period
109.37 min
Inclination
87.9100°
Eccentricity
0.0001828
Mean motion
13.16593063 rev/d
Perigee alt
1,196.4 km
Apogee alt
1,199.1 km
Semi-major
7,575.9 km
B*
7.1644e-5
RAAN
233.3998°
Arg perigee
98.4588°
Mean anomaly
261.6750°
Rev number
23,650

§ Raw data

ONEWEB-02771 48995U 21060AE  26144.94426311  .00000040  00000+0  71644-4 0  99902 48995  87.9100 233.3998 0001828  98.4588 261.6750 13.16593063236500

JSON: /api/v1/satellites/48995 · /tle

For live sub-satellite position, see the globe view (requires WebGL).

§ Visibility from observer

Set your observer location to see the next 7 days of passes ≥ 10°. The values pass through the URL so the page stays shareable.

No JS? Fill the form by hand. The geolocation button needs JavaScript.